Fort Smith, AR

2:39 AM CDT on May 26, 2017 (GMT -0500)
Fort Smith Regional

Weather History for KFSM - November, 2010

Change the Weather History Date:

Tuesday, November 16, 2010

  Actual Average Record
Temperature  
Mean Temperature 53 °F 51 °F  
Max Temperature 62 °F 63 °F 87 °F (2016)
Min Temperature 43 °F 40 °F 20 °F (1932)
Degree Days  
Heating Degree Days 12 14  
Month to date heating degree days 141 175  
Since 1 July heating degree days 219 329  
Growing Degree Days 3 (Base 50)    
Moisture  
Dew Point 41 °F    
Average Humidity 68    
Maximum Humidity 93    
Minimum Humidity 42    
Precipitation  
Precipitation 0.25 in 0.15 in 2.22 in (1891)
Month to date precipitation 0.66 2.42  
Year to date precipitation 31.32 40.15  
Sea Level Pressure  
Sea Level Pressure 29.79 in    
Wind  
Wind Speed 7 mph (WSW)    
Max Wind Speed 17 mph    
Max Gust Speed 22 mph    
Visibility 10 miles    
Events Rain    
T = Trace of Precipitation, MM = Missing Value Source: NWS Daily Summary

Daily Weather History Graph

Daily Weather History Graph

Search for Another Location

Airport or City:

Trip Planner

Search our weather history database for the weather conditions in past years. The results will help you decide how hot, cold, wet, or windy it might be!

Date:

Astronomy

Nov. 16, 2010 Rise Set
Actual Time 6:53 AM CST 5:10 PM CST
Civil Twilight 6:26 AM CST 5:37 PM CST
Nautical Twilight 5:55 AM CST 6:08 PM CST
Astronomical Twilight 5:25 AM CST 6:38 PM CST
Moon 2:09 PM CST (11/16) 2:05 AM CST (11/16)
Length of Visible Light 11h 11m
Length of Day
10h 16m
Waxing Gibbous, 77% of the Moon is Illuminated
Nov 16
Waxing Gibbous
Nov 21
Full
Nov 28
Last Quarter
Dec 5
New
Dec 13
First Quarter

Hourly Weather History & Observations

Time (CST) Temp. Windchill Dew Point Humidity Pressure Visibility Wind Dir Wind Speed Gust Speed Precip Events Conditions
12:53 AM 48.0 °F - 42.1 °F 80% 29.78 in 4.0 mi North 8.1 mph - 0.06 in Rain Heavy Rain
1:53 AM 46.9 °F - 43.0 °F 86% 29.75 in 10.0 mi NNE 5.8 mph - 0.15 in Rain Light Rain
2:53 AM 46.9 °F - 43.0 °F 86% 29.76 in 10.0 mi NE 4.6 mph - 0.01 in Rain Light Rain
3:53 AM 46.0 °F 43.1 °F 41.0 °F 83% 29.76 in 10.0 mi ENE 5.8 mph - 0.01 in Rain Light Rain
4:53 AM 45.0 °F - 42.1 °F 90% 29.76 in 10.0 mi Calm Calm - 0.02 in Rain Light Rain
5:53 AM 45.0 °F 42.6 °F 42.1 °F 90% 29.78 in 10.0 mi West 4.6 mph - 0.00 in   Overcast
6:53 AM 46.0 °F 44.8 °F 42.1 °F 86% 29.78 in 10.0 mi SW 3.5 mph - 0.00 in Rain Light Rain
7:53 AM 46.9 °F - 44.1 °F 90% 29.80 in 8.0 mi West 4.6 mph - 0.00 in Rain Light Rain
8:53 AM 48.0 °F - 45.0 °F 89% 29.81 in 10.0 mi West 4.6 mph - 0.00 in   Overcast
9:53 AM 50.0 °F - 45.0 °F 83% 29.81 in 10.0 mi West 6.9 mph - N/A   Overcast
10:41 AM 51.8 °F - 44.6 °F 76% 29.82 in 10.0 mi West 8.1 mph - N/A   Mostly Cloudy
10:53 AM 54.0 °F - 45.0 °F 72% 29.81 in 10.0 mi West 9.2 mph - N/A   Mostly Cloudy
11:53 AM 55.0 °F - 43.0 °F 64% 29.79 in 10.0 mi WSW 11.5 mph - N/A   Mostly Cloudy
12:53 PM 59.0 °F - 41.0 °F 51% 29.77 in 10.0 mi WSW 16.1 mph - N/A   Scattered Clouds
1:53 PM 60.1 °F - 39.9 °F 47% 29.77 in 10.0 mi West 12.7 mph 19.6 mph N/A   Partly Cloudy
2:53 PM 61.0 °F - 39.0 °F 44% 29.76 in 10.0 mi West 16.1 mph - N/A   Clear
3:53 PM 61.0 °F - 37.9 °F 42% 29.76 in 10.0 mi West 11.5 mph - N/A   Clear
4:53 PM 59.0 °F - 37.9 °F 46% 29.76 in 10.0 mi WSW 8.1 mph - N/A   Partly Cloudy
5:53 PM 54.0 °F - 37.9 °F 55% 29.78 in 10.0 mi SSW 3.5 mph - N/A   Clear
6:53 PM 52.0 °F - 37.9 °F 59% 29.80 in 10.0 mi Calm Calm - N/A   Clear
7:53 PM 51.1 °F - 39.0 °F 63% 29.81 in 10.0 mi SSW 3.5 mph - N/A   Clear
8:53 PM 52.0 °F - 39.9 °F 63% 29.84 in 10.0 mi SW 5.8 mph - N/A   Clear
9:53 PM 52.0 °F - 39.0 °F 61% 29.86 in 10.0 mi SSW 6.9 mph - N/A   Clear
10:53 PM 46.0 °F 44.8 °F 41.0 °F 83% 29.87 in 10.0 mi ENE 3.5 mph - N/A   Clear
11:53 PM 43.0 °F - 39.9 °F 89% 29.88 in 10.0 mi Calm Calm - N/A   Clear